Starlink 30534

operational
NORAD ID: 57992 Int'l Des: 2023-153 Owner: SPXS Country: US Constellation: starlink
LEOCIRCULAR

Über Starlink 30534

Beschreibung wird geladen...

Live-Position

3D-Globus wird geladen...

Nächste Überflüge

Höhenverlauf

Altitude vs Time

uPlot chart will show altitude changes over time

Zweizeiliger Elementsatz

1 57992U 23153B 25303.67917878 .00002202 00000-0 17807-3 0 9994
2 57992 43.0043 55.6815 0001511 291.4017 68.6664 15.02527399115219
Epoch: 30. Okt. 2025 • Age: 28 hours

Aktueller Status

Höhe 571.3 km
Geschwindigkeit 7.58 km/s
Subsatellitenpunkt -42.28°S, 43.84°W
Startdatum 5. Okt. 2023
Alter 2 years
Typ internet

Technische Details

Klassifizierung Payload
Masse 730.00 kg
Trockenmasse 700.00 kg
Gesamtmasse 730.00 kg
Länge 0.30 m
Durchmesser 4.10 m
Spannweite 29.00 m
Form Box + pan
Hersteller SPXS
Bus-Typ Starlink V2M
Phasenstatus In Orbit
Besitzer/Staat SPXS/US

Große Konstellationen

Loading constellations...